New Bern, NC

8:42 PM EDT on June 21, 2018 (GMT -0400)
Craven County Regional

Weather History for KEWN - June, 2018

Change the Weather History Date:

Wednesday, June 13, 2018

  Actual Average Record
Temperature  
Mean Temperature 78 °F 77 °F  
Max Temperature 86 °F 87 °F 98 °F (2002)
Min Temperature 69 °F 67 °F 54 °F (1950)
Degree Days  
Heating Degree Days 0 0  
Month to date heating degree days 0 0  
Since 1 June heating degree days 0 0  
Since 1 July heating degree days 2912 2701  
Cooling Degree Days 13 12  
Month to date cooling degree days 141 135  
Year to date cooling degree days 459 378  
Since 1 June cooling degree days 141 135  
Growing Degree Days 28 (Base 50)    
Moisture  
Dew Point 71 °F    
Average Humidity 81    
Maximum Humidity 100    
Minimum Humidity 61    
Precipitation  
Precipitation 0.00 in 0.15 in 3.06 in (1953)
Month to date precipitation 2.73 1.93  
Year to date precipitation 25.86 21.32  
Snow  
Snow 0.00 in - - ()
Month to date snowfall 0.0  
Since 1 July snowfall 6.0  
Snow Depth 0.00 in    
Sea Level Pressure  
Sea Level Pressure 30.06 in    
Wind  
Wind Speed 5 mph (West)    
Max Wind Speed 13 mph    
Max Gust Speed 17 mph    
Visibility 5 miles    
Events Fog    
T = Trace of Precipitation, MM = Missing Value Source: NWS Daily Summary

Daily Weather History Graph

Daily Weather History Graph

Search for Another Location

Airport or City:

Astronomy

Jun. 13, 2018 Rise Set
Actual Time 5:53 AM EDT 8:23 PM EDT
Civil Twilight 5:23 AM EDT 8:52 PM EDT
Nautical Twilight 4:47 AM EDT 9:29 PM EDT
Astronomical Twilight 4:06 AM EDT 10:10 PM EDT
Moon 5:50 AM EDT (6/13) 8:18 PM EDT (6/13)
Length of Visible Light 15h 29m
Length of Day
14h 29m
Waning Crescent, 0% of the Moon is Illuminated
Jun 13
Waning Crescent
Jun 13
New
Jun 20
First Quarter
Jun 28
Full
Jul 6
Last Quarter

Hourly Weather History & Observations

Time (EDT) Temp. Heat Index Dew Point Humidity Pressure Visibility Wind Dir Wind Speed Gust Speed Precip Events Conditions
12:25 AM 71.1 °F - 71.1 °F 100% 30.09 in 4.0 mi WNW 3.5 mph - N/A   Mostly Cloudy
12:41 AM 71.1 °F - 71.1 °F 100% 30.09 in 5.0 mi NW 3.5 mph - N/A   Overcast
12:54 AM 71.1 °F - 71.1 °F 100% 30.08 in 4.0 mi NW 3.5 mph - N/A   Overcast
1:16 AM 70.0 °F - 70.0 °F 100% 30.08 in 4.0 mi Calm Calm - N/A   Overcast
1:37 AM 71.1 °F - 71.1 °F 100% 30.08 in 4.0 mi NNW 3.5 mph - N/A   Overcast
1:44 AM 71.1 °F - 71.1 °F 100% 30.07 in 4.0 mi Calm Calm - N/A   Overcast
1:54 AM 71.1 °F - 71.1 °F 100% 30.07 in 4.0 mi Calm Calm - N/A   Overcast
2:21 AM 71.1 °F - 71.1 °F 100% 30.07 in 2.5 mi NW 3.5 mph - N/A   Overcast
2:26 AM 71.1 °F - 71.1 °F 100% 30.07 in 0.8 mi WNW 3.5 mph - N/A   Overcast
2:34 AM 70.0 °F - 70.0 °F 100% 30.06 in 0.2 mi WNW 3.5 mph - N/A Fog Fog
2:54 AM 70.0 °F - 70.0 °F 100% 30.06 in 0.2 mi NNW 3.5 mph - N/A Fog Fog
3:54 AM 70.0 °F - 70.0 °F 100% 30.05 in 0.2 mi Calm Calm - N/A Fog Fog
4:54 AM 69.1 °F - 69.1 °F 100% 30.06 in 0.2 mi Calm Calm - N/A Fog Fog
5:54 AM 69.1 °F - 69.1 °F 100% 30.06 in 0.2 mi Calm Calm - N/A Fog Fog
6:54 AM 69.1 °F - 69.1 °F 100% 30.06 in 0.2 mi Calm Calm - N/A Fog Fog
7:54 AM 71.1 °F - 71.1 °F 100% 30.09 in 0.5 mi Calm Calm - N/A Fog Fog
7:59 AM 70.0 °F - 70.0 °F 100% 30.09 in 1.0 mi Calm Calm - N/A   Mist
8:08 AM 70.0 °F - 70.0 °F 100% 30.09 in 2.0 mi WNW 3.5 mph - N/A   Mist
8:13 AM 71.1 °F - 71.1 °F 100% 30.09 in 0.8 mi WNW 3.5 mph - N/A   Mist
8:30 AM 71.1 °F - 71.1 °F 100% 30.09 in 1.8 mi WSW 4.6 mph - N/A   Mist
8:37 AM 71.1 °F - 71.1 °F 100% 30.10 in 2.5 mi WNW 5.8 mph - N/A   Mist
8:54 AM 71.1 °F - 71.1 °F 100% 30.10 in 3.0 mi West 4.6 mph - N/A   Overcast
9:03 AM 72.0 °F - 72.0 °F 100% 30.10 in 4.0 mi West 3.5 mph - N/A   Overcast
9:28 AM 73.9 °F - 72.0 °F 93% 30.09 in 9.0 mi SW 3.5 mph - N/A   Overcast
9:54 AM 75.9 °F - 71.1 °F 85% 30.08 in 10.0 mi Calm Calm - N/A   Mostly Cloudy
10:54 AM 80.1 °F 83.8 °F 72.0 °F 76% 30.08 in 10.0 mi West 6.9 mph - N/A   Mostly Cloudy
11:19 AM 80.1 °F 83.8 °F 72.0 °F 76% 30.07 in 10.0 mi West 6.9 mph - N/A   Mostly Cloudy
11:54 AM 82.0 °F 86.7 °F 72.0 °F 71% 30.06 in 10.0 mi WSW 6.9 mph - N/A   Scattered Clouds
12:10 PM 82.9 °F 88.0 °F 72.0 °F 69% 30.06 in 10.0 mi West 8.1 mph - N/A   Mostly Cloudy
12:21 PM 82.9 °F 88.0 °F 72.0 °F 69% 30.07 in 10.0 mi Variable 5.8 mph - N/A   Scattered Clouds
12:54 PM 82.0 °F 86.3 °F 71.1 °F 69% 30.06 in 10.0 mi WNW 6.9 mph - N/A   Mostly Cloudy
1:54 PM 82.9 °F 88.0 °F 72.0 °F 69% 30.03 in 10.0 mi WSW 10.4 mph - N/A   Mostly Cloudy
2:54 PM 84.9 °F 90.7 °F 72.0 °F 65% 30.02 in 10.0 mi SW 9.2 mph - N/A   Partly Cloudy
3:54 PM 86.0 °F 92.2 °F 72.0 °F 63% 30.00 in 10.0 mi West 12.7 mph - N/A   Partly Cloudy
4:54 PM 84.9 °F 90.7 °F 72.0 °F 65% 29.98 in 10.0 mi South 10.4 mph - N/A   Partly Cloudy
5:54 PM 81.0 °F 86.2 °F 73.9 °F 79% 29.97 in 9.0 mi SSW 6.9 mph - N/A   Scattered Clouds
6:54 PM 82.0 °F 87.9 °F 73.9 °F 76% 29.99 in 9.0 mi SSW 8.1 mph - N/A   Mostly Cloudy
7:54 PM 79.0 °F - 73.0 °F 82% 29.99 in 10.0 mi SSW 8.1 mph - N/A   Clear
8:54 PM 75.9 °F - 73.0 °F 91% 29.99 in 9.0 mi SSW 5.8 mph - N/A   Clear
9:54 PM 75.0 °F - 73.0 °F 94% 30.00 in 8.0 mi SSW 6.9 mph - N/A   Clear
10:54 PM 73.0 °F - 73.0 °F 100% 30.01 in 6.0 mi SSW 4.6 mph - N/A   Clear
11:54 PM 73.0 °F - 73.0 °F 100% 30.00 in 6.0 mi SW 5.8 mph - N/A   Clear